SCP
-0 -0 -0 -0 -0 -0 -0 -0 -0 -0 -0 -0 -0 -0 0 0 0 0 0 0 0 0 0 -0 0 0 0 0 -0 -0 -0 -0 0 0 0 0 0 0 0 0 0 0 0 -0 -0
-0 -0 -0 -0 -0 -0 -0 -0 0 0 0 0 0 0 0 0 -0 -0 0 0 0 -0 0 -0 -0 -0 -0 -0 0 -0 0 -0 0 0 0 -0 -0 0 0 -0 0 0 -0 -0 -0
-0 -0 -0 -0 -0 -0 0 0 0 0 0 0 0 0 0 -0 0 0 0 0 -0 -0 0 -0 -0 0 0 -0 -0 0 -0 0 0 0 0 0 0 0 0 0 -0 -0 -0 -0 -0
-0 -0 -0 -0 -0 -0 -0 0 0 0 0 0 -0 -0 0 0 0 0 0 0 -0 0 -0 0 -0 -0 0 0 0 -0 -0 0 0 0 -0 0 0 -0 0 0 -0 -0 -0 -0 -0
-0 -0 -0 -0 -0 -0 -0 -0 -0 0 0 -0 -0 -0 -0 0 0 0 0 0 -0 -0 0 0 0 -0 -0 0 -0 0 0 0 -0 -0 -0 -0 0 0 -0 -0 -0 -0 -0 -0 -0
-0 -0 -0 -0 -0 -0 -0 -0 -0 -0 -0 -0 0 0 0 0 0 0 0 0 -0 -0 0 0 -0 -0 0 0 0 0 0 0 0 -0 0 -0 -0 -0 0 -0 -0 -0 -0 -0 -0
0 -0 -0 -0 -0 -0 -0 0 0 -0 -0 -0 -0 -0 0 0 0 0 0 0 0 0 0 -0 -0 -0 0 0 -0 0 0 0 -0 -0 0 -0 -0 0 0 -0 -0 -0 -0 -0 -0
0 0 -0 -0 -0 -0 0 0 0 -0 -0 -0 -0 -0 0 0 0 0 0 0 0 -0 -0 -0 0 0 0 0 0 0 0 0 -0 0 -0 -0 0 -0 -0 -0 -0 -0 -0 -0 -0
0 0 0 0 0 0 0 0 -0 0 -0 -0 -0 -0 0 0 0 0 0 0 0 0 -0 0 0 0 0 0 0 0 0 0 0 -0 0 -0 0 0 -0 -0 -0 -0 -0 -0 -0
0 0 0 0 0 0 0 -0 0 -0 -0 -0 -0 -0 0 0 0 0 0 0 0 0 0 0 0 0 -0 0 -0 0 0 -0 0 -0 0 0 0 -0 -0 -0 -0 -0 -0 -0 -0
0 0 0 0 0 0 0 0 0 -0 -0 0 0 0 0 0 -0 0 0 0 0 0 0 0 0 0 0 -0 0 0 0 0 -0 0 -0 0 0 0 -0 0 -0 -0 -0 -0 -0
0 0 0 0 0 0 0 0 0 0 0 0 0 0 0 0 0 0 -0 0 0 0 0 0 0 0 0 0 0 0 0 0 0 0 0 0 0 0 -0 0 0 0 -0 -0 -0
0 0 0 0 0 -0 0 0 0 0 0 0 0 0 0 0 0 0 0 0 0 0 0 0 0 0 0 0 0 0 0 0 0 0 0 0 0 0 0 0 0 0 0 -0 -0
0 0 0 0 -0 0 0 0 0 -0 0 0 0 0 0 0 0 0 0 0 0 0 0 0 0 0 0 0 0 0 0 0 0 0 0 0 0 0 0 0 0 0 -0 -0 -0
0 0 0 -0 0 0 0 0 0 -0 0 0 0 0 0 0 0 0 0 0 0 0 0 0 0 0 0 0 0 0 0 0 0 0 0 0 0 0 0 0 0 0 0 -0 -0
0 0 0 -0 -0 0 0 0 -0 0 0 0 0 0 -0 0 0 0 0 0 0 0 0 0 0 0 0 0 0 0 0 0 0 0 0 0 0 0 0 0 0 0 0 0 0
0 0 -0 -0 0 0 -0 -0 0 0 0 0 0 0 0 0 0 0 0 0 0 0 0 0 0 0 0 0 0 0 0 0 0 0 0 0 0 0 0 0 0 0 0 0 0
-0 -0 0 -0 0 -0 -0 0 0 0 0 0 0 0 0 0 0 0 0 0 0 0 0 0 0 0 0 0 0 0 0 0 0 0 0 0 0 0 0 0 0 0 0 0 0
-0 0 0 0 0 -0 -0 0 0 0 0 0 0 0 0 0 0 0 0 0 0 0 0 0 0 0 0 0 0 0 0 0 0 0 0 0 0 0 0 0 0 -0 0 0 0
-0 0 0 0 0 -0 -0 -0 0 0 0 0 0 0 0 0 0 0 0 0 0 0 0 0 0 0 0 0 0 0 0 0 0 0 0 0 0 0 0 0 0 0 0 0 0
-0 -0 -0 -0 -0 -0 0 0 0 0 0 0 0 0 0 0 0 0 0 0 0 0 0 0 0 0 0 0 0 0 0 0 0 0 0 0 0 0 0 0 0 0 0 0 0
0 0 -0 -0 -0 -0 -0 0 0 0 0 0 0 0 0 0 0 0 0 0 0 0 0 0 0 0 0 0 0 0 0 0 0 0 0 0 0 0 0 0 0 0 0 0 0
0 0 -0 -0 0 0 0 0 0 0 0 0 0 0 0 0 0 0 0 0 0 0 0 0 0 0 0 0 0 0 0 0 0 0 0 0 0 -0 0 0 0 0 0 0 0
0 0 0 0 0 0 0 0 0 0 0 0 0 0 0 0 0 0 0 0 0 0 0 0 0 0 0 0 0 0 0 0 0 0 0 0 0 0 0 0 0 0 0 0 0
0 0 0 0 0 0 0 0 0 0 0 0 0 0 0 0 0 0 0 0 0 0 0 0 0 0 0 0 0 0 0 0 0 0 0 0 0 0 0 0 0 0 0 0 0
0 0 0 0 0 0 0 0 -0 -0 -0 0 0 0 0 0 0 0 0 0 0 0 0 0 0 0 0 0 0 0 0 0 0 0 0 0 0 0 0 0 0 0 0 0 0
0 0 -0 0 0 0 -0 -0 0 0 0 0 0 0 0 0 0 -0 -0 0 0 0 0 0 0 0 0 0 0 0 0 0 0 0 0 0 0 0 0 0 0 0 0 0 0
Wind_Speed_500mb
38 38 37 36 35 34 30 27 25 25 26 33 31 28 18 11 12 13 13 17 28 27 32 34 42 36 33 26 29 20 13 4 7 8 16 30 15 14 6 17 18 17 23 50 73
40 40 39 40 38 37 34 29 25 24 28 32 32 19 22 12 11 19 23 29 34 39 41 47 48 40 39 40 19 18 16 10 23 17 16 32 36 35 22 24 22 21 43 64 77
41 41 41 41 40 38 36 31 27 24 29 31 28 16 23 7 4 9 25 27 39 44 38 40 36 39 41 32 38 27 23 24 16 14 25 10 12 31 24 24 32 34 60 72 78
42 42 41 41 41 38 35 31 29 28 31 27 15 24 19 10 1 7 11 21 38 48 38 43 39 43 37 32 38 29 23 11 9 23 26 15 25 19 22 3 31 44 59 75 76
42 42 42 41 40 39 33 30 30 31 28 19 20 16 5 13 2 13 12 21 39 55 46 48 44 42 35 33 27 32 21 7 19 23 25 27 8 6 45 25 40 53 58 71 69
43 43 43 43 40 37 35 31 30 29 23 17 19 8 5 23 5 11 3 20 44 52 46 47 38 41 25 34 30 14 33 11 19 27 24 29 21 25 27 36 47 57 59 69 68
46 45 45 45 42 36 33 32 27 24 14 12 11 18 11 7 6 2 7 23 39 44 44 43 31 35 25 28 32 37 21 30 43 27 24 22 30 26 29 44 49 53 57 66 65
48 47 47 47 44 35 31 30 20 12 3 9 12 9 5 1 4 3 12 23 30 35 36 35 33 30 37 21 16 32 32 30 36 29 35 27 17 33 43 47 50 51 55 64 65
47 46 46 46 41 31 31 24 4 12 12 12 5 5 15 8 3 7 12 23 32 29 34 31 29 35 40 25 26 30 29 39 24 43 28 29 5 34 48 47 48 50 55 64 66
45 42 40 38 30 27 29 13 2 7 3 3 5 14 7 4 3 5 13 23 34 27 33 29 27 32 33 30 31 35 37 33 30 44 40 31 26 44 47 46 45 49 54 63 68
45 41 35 30 20 23 24 15 8 7 18 11 10 6 11 5 4 7 17 29 33 32 31 44 28 36 40 39 40 39 29 39 35 29 31 31 25 60 39 40 46 49 53 62 68
44 37 30 24 12 17 24 8 8 9 13 7 4 7 6 6 11 10 20 29 28 33 39 25 41 39 34 33 34 37 27 32 36 30 25 19 32 22 40 36 46 49 54 60 64
43 35 25 16 8 13 6 10 10 7 16 20 10 5 7 9 2 8 14 27 25 38 41 40 20 39 40 35 32 37 37 31 28 27 30 20 23 34 33 43 44 45 49 59 68
47 37 22 7 4 9 2 16 12 8 11 26 20 10 11 8 14 4 3 13 21 31 38 42 43 16 38 39 34 37 34 36 33 32 23 39 23 35 28 40 41 48 53 59 65
44 35 21 10 8 8 13 16 4 9 11 13 16 5 7 19 9 14 5 14 26 27 22 33 36 44 34 40 34 34 32 32 35 36 31 39 36 35 42 32 46 49 57 58 64
41 31 7 6 6 8 13 11 6 14 8 13 8 9 20 10 9 1 8 12 12 18 26 35 30 32 43 34 32 33 35 30 27 30 36 48 35 42 30 33 48 53 63 61 63
39 21 2 10 7 14 12 9 13 18 5 16 10 12 9 10 14 6 7 19 18 23 31 36 40 35 28 35 45 34 33 25 28 28 39 48 48 36 47 54 29 47 66 67 64
32 8 9 2 11 11 10 18 17 9 10 10 2 8 19 6 16 8 17 19 19 23 27 28 32 43 39 43 37 49 44 30 45 31 41 47 52 47 50 39 27 39 76 70 66
15 8 3 11 10 6 21 19 7 15 13 6 14 19 21 12 13 5 18 22 8 6 25 19 40 9 11 38 42 45 47 49 49 48 33 39 51 49 52 52 53 64 48 71 74
10 6 7 17 7 9 15 23 8 13 12 11 19 2 15 18 8 15 13 11 5 7 15 17 25 26 9 18 35 42 35 42 35 48 54 40 44 39 54 49 52 40 36 44 53
6 14 8 17 5 22 15 12 8 9 15 8 13 17 13 21 10 25 13 11 9 5 17 27 17 33 34 24 38 31 39 36 37 46 41 37 34 29 41 49 48 48 55 47 54
7 6 22 9 23 8 12 10 6 7 1 11 9 17 21 23 23 19 25 11 16 12 19 13 19 28 42 25 37 49 44 52 35 45 42 41 32 29 26 41 49 49 58 73 61
13 9 22 11 8 9 8 6 5 8 10 10 10 9 18 18 18 20 26 5 8 15 8 13 20 25 34 30 33 33 41 32 39 51 47 40 40 44 6 17 22 47 64 60 70
13 3 11 26 16 10 1 8 6 10 7 12 17 20 19 24 21 15 21 6 14 24 12 9 26 30 28 17 21 27 49 46 40 32 43 49 41 51 19 7 22 33 48 61 60
14 10 8 14 13 12 11 5 3 13 14 11 6 11 14 14 20 26 24 24 19 16 17 20 32 32 33 35 25 31 30 27 36 28 37 41 49 47 29 25 16 14 22 34 31
13 6 12 18 14 6 10 21 22 9 17 9 15 18 17 21 22 28 19 23 28 20 29 28 33 29 35 31 30 37 38 37 42 40 40 48 52 42 46 35 33 18 22 9 16
13 10 9 6 19 12 15 13 13 18 3 9 14 18 16 20 26 30 38 33 28 28 24 28 27 28 38 34 36 40 42 41 44 46 44 45 47 40 39 19 37 31 22 8 21
Wind_Direction_500mb
7 5 1 357 354 350 345 339 331 324 324 327 333 349 345 278 282 241 223 217 211 183 171 172 176 188 196 203 230 256 259 323 71 168 114 138 134 155 107 158 164 176 156 156 157
2 359 354 347 346 347 345 337 329 326 322 325 328 323 351 317 282 244 240 215 192 171 163 174 181 189 201 205 224 230 265 265 116 159 126 154 150 161 164 174 150 149 124 149 157
357 355 351 344 339 339 341 337 331 330 323 326 325 320 326 312 282 171 222 201 184 177 176 183 186 192 209 215 203 217 265 17 74 98 153 258 39 184 159 185 155 147 145 156 162
352 349 346 342 338 335 335 334 329 327 323 326 322 321 328 163 284 199 251 208 187 172 187 191 194 201 217 209 225 253 238 102 198 164 165 166 176 187 164 49 145 148 156 161 167
348 345 342 339 336 334 329 329 326 322 322 320 316 314 152 208 124 310 271 207 186 177 190 195 200 206 221 226 226 231 236 290 183 195 150 161 217 184 132 126 133 148 157 165 169
347 343 341 338 335 332 329 326 323 323 323 319 306 282 154 235 352 331 281 186 183 182 193 198 208 211 247 252 238 248 235 188 214 220 196 194 188 218 140 131 140 153 160 168 172
345 343 340 337 333 330 328 326 320 315 330 356 86 123 248 104 9 37 143 161 176 183 195 198 206 216 231 252 239 254 258 208 189 197 254 238 224 202 134 147 151 159 165 172 176
343 342 340 337 332 330 329 327 317 324 329 100 130 79 54 275 241 76 162 171 186 191 202 201 207 240 235 260 257 236 238 235 211 190 228 238 227 162 157 157 159 163 170 174 179
339 339 339 336 333 336 335 327 278 27 108 161 26 272 121 350 169 192 169 180 174 192 204 205 223 231 231 236 238 210 229 226 194 184 216 217 46 300 164 161 159 164 172 177 180
337 338 339 337 339 347 349 25 283 7 144 78 252 246 155 119 128 187 189 179 177 175 191 196 218 229 225 215 230 211 219 223 205 202 213 213 175 243 172 166 159 167 173 179 183
336 339 341 339 348 9 25 342 266 209 221 322 62 61 120 142 86 157 152 164 179 190 197 198 214 214 214 230 245 270 227 233 213 165 216 211 190 217 170 169 158 171 175 182 185
334 338 339 337 356 36 28 25 15 325 264 201 176 135 149 164 154 119 179 193 202 207 211 183 222 226 230 240 235 256 259 262 236 168 196 235 234 202 171 175 166 174 177 184 184
335 337 337 331 341 16 14 17 326 315 253 167 202 216 164 225 220 102 227 221 212 212 205 225 207 217 233 232 238 236 240 244 253 176 221 229 251 233 185 172 167 176 180 184 187
334 334 331 310 288 325 194 338 322 225 264 144 203 165 203 227 187 180 219 266 226 235 229 224 242 205 223 233 228 238 225 256 255 258 225 218 231 248 166 184 170 179 183 185 188
332 330 323 245 260 310 302 326 280 203 269 141 127 99 194 217 93 148 218 229 258 218 249 226 227 237 222 232 225 246 255 229 236 253 263 249 233 205 202 198 178 184 188 189 190
333 329 338 358 286 295 321 309 173 229 232 129 138 170 202 196 168 66 220 228 305 283 264 265 253 234 240 219 231 243 245 256 253 235 239 237 222 239 192 208 198 190 189 194 192
333 331 208 152 269 304 313 238 230 244 120 137 159 201 242 142 171 254 229 213 242 231 228 227 237 249 240 238 216 217 222 224 226 224 235 226 236 239 179 211 222 199 196 190 194
340 9 30 226 311 295 285 241 254 16 54 62 176 181 243 137 193 232 247 248 194 272 286 277 217 211 218 230 230 216 225 233 221 218 231 227 225 226 249 189 195 253 204 192 192
11 18 18 305 299 254 262 236 283 39 18 261 188 254 218 200 280 219 240 288 3 324 284 283 246 112 273 211 236 236 217 236 254 258 250 215 220 241 222 236 174 226 186 193 187
359 241 11 344 297 235 248 275 58 5 332 274 271 292 284 183 218 192 271 83 254 279 303 286 279 269 213 241 260 246 237 222 237 248 254 248 230 212 216 228 227 227 250 165 229
21 247 7 341 280 225 253 62 80 89 344 298 298 288 254 292 245 279 279 102 223 215 278 287 263 263 245 200 239 219 247 256 262 224 246 247 241 231 204 209 228 222 212 232 206
292 267 351 351 247 301 31 22 5 332 292 301 296 287 289 296 283 254 258 273 73 300 275 238 278 252 250 218 235 253 243 230 242 238 228 251 249 251 222 200 204 232 220 223 224
333 20 7 321 290 111 106 106 325 340 350 335 307 316 327 296 281 261 263 258 126 250 279 324 234 250 247 259 264 260 249 250 257 250 244 227 234 254 46 229 224 216 227 225 227
306 193 89 51 37 10 180 49 68 82 327 334 308 311 286 278 267 259 263 213 227 241 37 292 270 272 270 337 334 254 232 248 249 254 246 247 239 238 181 244 237 245 218 231 215
2 55 4 15 48 44 23 70 30 20 10 310 4 5 332 292 291 278 267 252 225 206 233 243 258 264 268 282 277 282 286 264 264 251 255 251 247 261 248 203 204 232 230 243 247
357 29 83 60 34 351 7 24 41 7 343 14 350 344 324 299 284 291 281 300 281 234 239 241 260 269 277 272 271 262 256 246 252 254 260 269 276 284 317 276 285 210 265 191 233
48 67 330 359 51 18 30 22 342 343 320 322 319 309 294 277 288 297 285 278 234 273 276 267 267 271 257 245 248 247 239 244 249 244 249 249 252 269 268 287 263 265 253 220 235
Wind_Speed_850mb
38 38 37 36 35 34 30 27 25 25 26 33 31 28 18 11 12 13 13 17 28 27 32 34 42 36 33 26 29 20 13 4 7 8 16 30 15 14 6 17 18 17 23 50 73
40 40 39 40 38 37 34 29 25 24 28 32 32 19 22 12 11 19 23 29 34 39 41 47 48 40 39 40 19 18 16 10 23 17 16 32 36 35 22 24 22 21 43 64 77
41 41 41 41 40 38 36 31 27 24 29 31 28 16 23 7 4 9 25 27 39 44 38 40 36 39 41 32 38 27 23 24 16 14 25 10 12 31 24 24 32 34 60 72 78
42 42 41 41 41 38 35 31 29 28 31 27 15 24 19 10 1 7 11 21 38 48 38 43 39 43 37 32 38 29 23 11 9 23 26 15 25 19 22 3 31 44 59 75 76
42 42 42 41 40 39 33 30 30 31 28 19 20 16 5 13 2 13 12 21 39 55 46 48 44 42 35 33 27 32 21 7 19 23 25 27 8 6 45 25 40 53 58 71 69
43 43 43 43 40 37 35 31 30 29 23 17 19 8 5 23 5 11 3 20 44 52 46 47 38 41 25 34 30 14 33 11 19 27 24 29 21 25 27 36 47 57 59 69 68
46 45 45 45 42 36 33 32 27 24 14 12 11 18 11 7 6 2 7 23 39 44 44 43 31 35 25 28 32 37 21 30 43 27 24 22 30 26 29 44 49 53 57 66 65
48 47 47 47 44 35 31 30 20 12 3 9 12 9 5 1 4 3 12 23 30 35 36 35 33 30 37 21 16 32 32 30 36 29 35 27 17 33 43 47 50 51 55 64 65
47 46 46 46 41 31 31 24 4 12 12 12 5 5 15 8 3 7 12 23 32 29 34 31 29 35 40 25 26 30 29 39 24 43 28 29 5 34 48 47 48 50 55 64 66
45 42 40 38 30 27 29 13 2 7 3 3 5 14 7 4 3 5 13 23 34 27 33 29 27 32 33 30 31 35 37 33 30 44 40 31 26 44 47 46 45 49 54 63 68
45 41 35 30 20 23 24 15 8 7 18 11 10 6 11 5 4 7 17 29 33 32 31 44 28 36 40 39 40 39 29 39 35 29 31 31 25 60 39 40 46 49 53 62 68
44 37 30 24 12 17 24 8 8 9 13 7 4 7 6 6 11 10 20 29 28 33 39 25 41 39 34 33 34 37 27 32 36 30 25 19 32 22 40 36 46 49 54 60 64
43 35 25 16 8 13 6 10 10 7 16 20 10 5 7 9 2 8 14 27 25 38 41 40 20 39 40 35 32 37 37 31 28 27 30 20 23 34 33 43 44 45 49 59 68
47 37 22 7 4 9 2 16 12 8 11 26 20 10 11 8 14 4 3 13 21 31 38 42 43 16 38 39 34 37 34 36 33 32 23 39 23 35 28 40 41 48 53 59 65
44 35 21 10 8 8 13 16 4 9 11 13 16 5 7 19 9 14 5 14 26 27 22 33 36 44 34 40 34 34 32 32 35 36 31 39 36 35 42 32 46 49 57 58 64
41 31 7 6 6 8 13 11 6 14 8 13 8 9 20 10 9 1 8 12 12 18 26 35 30 32 43 34 32 33 35 30 27 30 36 48 35 42 30 33 48 53 63 61 63
39 21 2 10 7 14 12 9 13 18 5 16 10 12 9 10 14 6 7 19 18 23 31 36 40 35 28 35 45 34 33 25 28 28 39 48 48 36 47 54 29 47 66 67 64
32 8 9 2 11 11 10 18 17 9 10 10 2 8 19 6 16 8 17 19 19 23 27 28 32 43 39 43 37 49 44 30 45 31 41 47 52 47 50 39 27 39 76 70 66
15 8 3 11 10 6 21 19 7 15 13 6 14 19 21 12 13 5 18 22 8 6 25 19 40 9 11 38 42 45 47 49 49 48 33 39 51 49 52 52 53 64 48 71 74
10 6 7 17 7 9 15 23 8 13 12 11 19 2 15 18 8 15 13 11 5 7 15 17 25 26 9 18 35 42 35 42 35 48 54 40 44 39 54 49 52 40 36 44 53
6 14 8 17 5 22 15 12 8 9 15 8 13 17 13 21 10 25 13 11 9 5 17 27 17 33 34 24 38 31 39 36 37 46 41 37 34 29 41 49 48 48 55 47 54
7 6 22 9 23 8 12 10 6 7 1 11 9 17 21 23 23 19 25 11 16 12 19 13 19 28 42 25 37 49 44 52 35 45 42 41 32 29 26 41 49 49 58 73 61
13 9 22 11 8 9 8 6 5 8 10 10 10 9 18 18 18 20 26 5 8 15 8 13 20 25 34 30 33 33 41 32 39 51 47 40 40 44 6 17 22 47 64 60 70
13 3 11 26 16 10 1 8 6 10 7 12 17 20 19 24 21 15 21 6 14 24 12 9 26 30 28 17 21 27 49 46 40 32 43 49 41 51 19 7 22 33 48 61 60
14 10 8 14 13 12 11 5 3 13 14 11 6 11 14 14 20 26 24 24 19 16 17 20 32 32 33 35 25 31 30 27 36 28 37 41 49 47 29 25 16 14 22 34 31
13 6 12 18 14 6 10 21 22 9 17 9 15 18 17 21 22 28 19 23 28 20 29 28 33 29 35 31 30 37 38 37 42 40 40 48 52 42 46 35 33 18 22 9 16
13 10 9 6 19 12 15 13 13 18 3 9 14 18 16 20 26 30 38 33 28 28 24 28 27 28 38 34 36 40 42 41 44 46 44 45 47 40 39 19 37 31 22 8 21
Wind_Direction_850mb
7 5 1 357 354 350 345 339 331 324 324 327 333 349 345 278 282 241 223 217 211 183 171 172 176 188 196 203 230 256 259 323 71 168 114 138 134 155 107 158 164 176 156 156 157
2 359 354 347 346 347 345 337 329 326 322 325 328 323 351 317 282 244 240 215 192 171 163 174 181 189 201 205 224 230 265 265 116 159 126 154 150 161 164 174 150 149 124 149 157
357 355 351 344 339 339 341 337 331 330 323 326 325 320 326 312 282 171 222 201 184 177 176 183 186 192 209 215 203 217 265 17 74 98 153 258 39 184 159 185 155 147 145 156 162
352 349 346 342 338 335 335 334 329 327 323 326 322 321 328 163 284 199 251 208 187 172 187 191 194 201 217 209 225 253 238 102 198 164 165 166 176 187 164 49 145 148 156 161 167
348 345 342 339 336 334 329 329 326 322 322 320 316 314 152 208 124 310 271 207 186 177 190 195 200 206 221 226 226 231 236 290 183 195 150 161 217 184 132 126 133 148 157 165 169
347 343 341 338 335 332 329 326 323 323 323 319 306 282 154 235 352 331 281 186 183 182 193 198 208 211 247 252 238 248 235 188 214 220 196 194 188 218 140 131 140 153 160 168 172
345 343 340 337 333 330 328 326 320 315 330 356 86 123 248 104 9 37 143 161 176 183 195 198 206 216 231 252 239 254 258 208 189 197 254 238 224 202 134 147 151 159 165 172 176
343 342 340 337 332 330 329 327 317 324 329 100 130 79 54 275 241 76 162 171 186 191 202 201 207 240 235 260 257 236 238 235 211 190 228 238 227 162 157 157 159 163 170 174 179
339 339 339 336 333 336 335 327 278 27 108 161 26 272 121 350 169 192 169 180 174 192 204 205 223 231 231 236 238 210 229 226 194 184 216 217 46 300 164 161 159 164 172 177 180
337 338 339 337 339 347 349 25 283 7 144 78 252 246 155 119 128 187 189 179 177 175 191 196 218 229 225 215 230 211 219 223 205 202 213 213 175 243 172 166 159 167 173 179 183
336 339 341 339 348 9 25 342 266 209 221 322 62 61 120 142 86 157 152 164 179 190 197 198 214 214 214 230 245 270 227 233 213 165 216 211 190 217 170 169 158 171 175 182 185
334 338 339 337 356 36 28 25 15 325 264 201 176 135 149 164 154 119 179 193 202 207 211 183 222 226 230 240 235 256 259 262 236 168 196 235 234 202 171 175 166 174 177 184 184
335 337 337 331 341 16 14 17 326 315 253 167 202 216 164 225 220 102 227 221 212 212 205 225 207 217 233 232 238 236 240 244 253 176 221 229 251 233 185 172 167 176 180 184 187
334 334 331 310 288 325 194 338 322 225 264 144 203 165 203 227 187 180 219 266 226 235 229 224 242 205 223 233 228 238 225 256 255 258 225 218 231 248 166 184 170 179 183 185 188
332 330 323 245 260 310 302 326 280 203 269 141 127 99 194 217 93 148 218 229 258 218 249 226 227 237 222 232 225 246 255 229 236 253 263 249 233 205 202 198 178 184 188 189 190
333 329 338 358 286 295 321 309 173 229 232 129 138 170 202 196 168 66 220 228 305 283 264 265 253 234 240 219 231 243 245 256 253 235 239 237 222 239 192 208 198 190 189 194 192
333 331 208 152 269 304 313 238 230 244 120 137 159 201 242 142 171 254 229 213 242 231 228 227 237 249 240 238 216 217 222 224 226 224 235 226 236 239 179 211 222 199 196 190 194
340 9 30 226 311 295 285 241 254 16 54 62 176 181 243 137 193 232 247 248 194 272 286 277 217 211 218 230 230 216 225 233 221 218 231 227 225 226 249 189 195 253 204 192 192
11 18 18 305 299 254 262 236 283 39 18 261 188 254 218 200 280 219 240 288 3 324 284 283 246 112 273 211 236 236 217 236 254 258 250 215 220 241 222 236 174 226 186 193 187
359 241 11 344 297 235 248 275 58 5 332 274 271 292 284 183 218 192 271 83 254 279 303 286 279 269 213 241 260 246 237 222 237 248 254 248 230 212 216 228 227 227 250 165 229
21 247 7 341 280 225 253 62 80 89 344 298 298 288 254 292 245 279 279 102 223 215 278 287 263 263 245 200 239 219 247 256 262 224 246 247 241 231 204 209 228 222 212 232 206
292 267 351 351 247 301 31 22 5 332 292 301 296 287 289 296 283 254 258 273 73 300 275 238 278 252 250 218 235 253 243 230 242 238 228 251 249 251 222 200 204 232 220 223 224
333 20 7 321 290 111 106 106 325 340 350 335 307 316 327 296 281 261 263 258 126 250 279 324 234 250 247 259 264 260 249 250 257 250 244 227 234 254 46 229 224 216 227 225 227
306 193 89 51 37 10 180 49 68 82 327 334 308 311 286 278 267 259 263 213 227 241 37 292 270 272 270 337 334 254 232 248 249 254 246 247 239 238 181 244 237 245 218 231 215
2 55 4 15 48 44 23 70 30 20 10 310 4 5 332 292 291 278 267 252 225 206 233 243 258 264 268 282 277 282 286 264 264 251 255 251 247 261 248 203 204 232 230 243 247
357 29 83 60 34 351 7 24 41 7 343 14 350 344 324 299 284 291 281 300 281 234 239 241 260 269 277 272 271 262 256 246 252 254 260 269 276 284 317 276 285 210 265 191 233
48 67 330 359 51 18 30 22 342 343 320 322 319 309 294 277 288 297 285 278 234 273 276 267 267 271 257 245 248 247 239 244 249 244 249 249 252 269 268 287 263 265 253 220 235